TEVEL2-9

Last updated on Tue Aug 25 2026 00:03:14 GMT+0000 (Coordinated Universal Time)

1 63237U 25052AD 26236.17658937 .00015717 00000+0 48233-3 0 9993 2 63237 97.3841 131.4296 0003742 254.2042 105.8788 15.33824437 80449
UTC large
Height (km)
Speed (km/s)
/
Latitude / Longitude
Inclination (degrees)
Orbital Period (minutes)
Azimuth
Elevation
Range (km)
Doppler Factor

Next 0 passes for location: London (51.5072 / 0.1276)

No passes found over London.
TEVEL2-9